Location: Goettingen
(51.5300°N, 9.9433°E)
Time: 07:33:13
(UTC+01:00)

ISS - Pass Details

Date: 14 December 2018
Orbit: 401 x 408 km, 51.6° (Epoch: 12 December)

Event Time Altitude Azimuth Distance (km) Brightness Sun altitude
Rises 17:11:31 0° 281° (W) 2,321 1.0 -8.8°
Reaches altitude 10° 17:14:06 10° 260° (W) 1,456 0.4 -9.1°
Maximum altitude 17:16:17 17° 218° (SW) 1,116 -0.6 -9.4°
Drops below altitude 10° 17:18:26 10° 176° (S) 1,449 -0.7 -9.7°
Sets 17:21:00 0° 155° (SSE) 2,303 0.0 -10.1°
